This is the latest recevied weather packets stored in our database for station/object DH1FR-13. If no packets are shown the sender has not sent any weather packets the latest 10 day(s).
| Time | Temp. | Humidity | Pressure | Rain* | Wind** | Luminosity | Snow |
|---|---|---|---|---|---|---|---|
| 1777298401 | 18.89° C | 39% | 1024.7 hPa | 0 mm | 0 m/s | - | - |
| 1777297801 | 18.33° C | 40% | 1024.6 hPa | 0 mm | 0 m/s | - | - |
| 1777297201 | 18.89° C | 42% | 1024.8 hPa | 0 mm | 0 m/s | - | - |
| 1777296601 | 18.89° C | 41% | 1024.8 hPa | 0 mm | 0 m/s | - | - |
| 1777296001 | 17.22° C | 40% | 1025 hPa | 0 mm | 0 m/s | - | - |
| 1777295401 | 16.67° C | 43% | 1025.2 hPa | 0 mm | 0 m/s | - | - |
| 1777294801 | 17.78° C | 44% | 1025.1 hPa | 0 mm | 0 m/s | - | - |
| 1777294201 | 17.22° C | 44% | 1025.1 hPa | 0 mm | 0 m/s | - | - |
| 1777293601 | 17.78° C | 47% | 1025.4 hPa | 0 mm | 0 m/s | - | - |
| 1777293001 | 17.78° C | 45% | 1025.4 hPa | 0 mm | 0 m/s | - | - |
| 1777292401 | 17.22° C | 46% | 1025.5 hPa | 0 mm | 0 m/s | - | - |
| 1777291801 | 16.11° C | 47% | 1025.5 hPa | 0 mm | 0 m/s | - | - |
| 1777291201 | 16.11° C | 48% | 1025.5 hPa | 0 mm | 0 m/s | - | - |
| 1777290601 | 16.67° C | 46% | 1025.9 hPa | 0 mm | 0 m/s | - | - |
| 1777290001 | 16.11° C | 45% | 1026 hPa | 0 mm | 0 m/s | - | - |
| 1777289401 | 16.11° C | 44% | 1025.8 hPa | 0 mm | 0 m/s | - | - |
| 1777288801 | 15.56° C | 44% | 1025.7 hPa | 0 mm | 0 m/s | - | - |
| 1777288201 | 15.56° C | 46% | 1026 hPa | 0 mm | 0 m/s | - | - |
| 1777287601 | 15° C | 44% | 1026.1 hPa | 0 mm | 0 m/s | - | - |
| 1777287001 | 15.56° C | 47% | 1026.1 hPa | 0 mm | 0 m/s | - | - |
| 1777286401 | 16.11° C | 45% | 1026.2 hPa | 0 mm | 0 m/s | - | - |
| 1777285800 | 15.56° C | 46% | 1026.1 hPa | 0 mm | 0 m/s | - | - |
| 1777285201 | 15.56° C | 46% | 1026.1 hPa | 0 mm | 0 m/s | - | - |
| 1777284601 | 15° C | 49% | 1026.2 hPa | 0 mm | 0 m/s | - | - |
| 1777284000 | 15.56° C | 47% | 1026.5 hPa | 0 mm | 0 m/s | - | - |
* Rain latest hour (hover to see other rain measurements)
** Current wind speed in m/s (hover to see current wind gust speed)